SENTINEL-2B

Last updated on Sun Apr 12 2026 00:02:35 GMT+0000 (Coordinated Universal Time)

1 42063U 17013A 26101.49420355 .00000144 00000+0 71629-4 0 9996 2 42063 98.5659 177.2175 0001215 94.1701 265.9620 14.30820293475109
UTC large
Height (km)
Speed (km/s)
/
Latitude / Longitude
Inclination (degrees)
Orbital Period (minutes)
Azimuth
Elevation
Range (km)
Doppler Factor

Next 0 passes for location: London (51.5072 / 0.1276)

Sorry there are no passes over London.
SENTINEL-2B